586  
ASUS42 KMHX 170426  
RWRMHX  
WEATHER ROUNDUP FOR EASTERN NORTH CAROLINA  
NATIONAL WEATHER SERVICE NEWPORT/MOREHEAD CITY NC  
1200 AM EDT WED JUL 17 2019  
 
NOTE: "FAIR" INDICATES FEW OR NO CLOUDS BELOW 12,000 FEET  
WITH NO SIGNIFICANT WEATHER AND/OR S TO VISIBILITY
 
 
NCZ015>017-031-032-045>047-102-103-170500-  
NORTH COAST  
 
CITY SKY/WX TMP DP RH WIND PRES REMARKS
 
EDENTON NOT AVBL  
ELIZABETH CITY FAIR 81 77 88 S5 30.09R  
KITTY HAWK FAIR 82 77 86 SW3 30.09R  
MANTEO FAIR 82 77 85 SW9 30.10S  
 

 
 
NCZ045>047-081-094-103-104-170500-  
CENTRAL COAST  
 
CITY SKY/WX TMP DP RH WIND PRES REMARKS
 
FRISCO FAIR 84 78 82 SW7 30.11S  
 

 
 
NCZ095-097-098-100-101-170500-  
SOUTHERN COAST  
 
CITY SKY/WX TMP DP RH WIND PRES REMARKS
 
BEAUFORT FAIR 84 78 82 SW12 30.12R  
CEDAR ISLAND NOT AVBL  
JACKSONVILLE FAIR 82 78 88 S3 30.10S  
PINEY ISLAND FAIR 81 77 88 S5 30.11R  
WILMINGTON FAIR 82 76 81 S5 30.11S  
 

 
 
NCZ011>013-027>030-043-044-078>080-089-090>093-098-170500-  
COASTAL PLAIN  
 
CITY SKY/WX TMP DP RH WIND PRES REMARKS
 
AHOSKIE NOT AVBL  
CLINTON FAIR 79 78 98 CALM 30.11R  
ELIZABETHTOWN FAIR 80 76 88 S7 30.11S  
GOLDSBORO NOT AVBL  
GREENVILLE FAIR 77 73 88 S3 30.11S  
HAVELOCK FAIR 82 76 81 S6 30.12R  
KENANSVILLE FAIR 79 77 94 CALM 30.11R  
KINSTON FAIR 80 75 86 S3 30.10S  
NEW BERN FAIR 80 79 96 CALM 30.11S  
RICHLANDS FAIR 80 79 96 S5 30.11S  
ROCKY MOUNT FAIR 80 71 74 S5 30.09S  
WASHINGTON FAIR 81 74 81 S6 30.10S  
WHITEVILLE FAIR 81 77 89 CALM 30.11R  
 

 
 
AMZ130-135-150-152-154-156-158-170-250-252-270-ANZ085-086-088-633-658-670-170500-  
MARINE OBSERVATIONS  
 
STATION/POSITION TIME TEMP WIND PRES WAVE SWELL
 
AIR SEA DIR/SP/G HT/PER HT/PER  
(UTC) (F) (DEG/KT/KT) (MB) (FT/S) (FT/S)  
64 E VA BEACH 0350 82 82 200/ 8/ 10 1019.3 2/10 2/10  
DUCK 0348 84 80 200/ 12/ 15 1018.4  
2 E DUCK 0400 81 N/A 1/11  
10 NE DUCK 0400 82 N/A 2/11  
OREGON INLET 0342 84 85 200/ 11/ 12 1019.1  
13E OREGON INLT 0346 82 N/A 1/11 2/11  
HATTERAS CG 0342 83 82 190/ 3/ 5 1019.7  
DIAMOND BUOY 0400 85 85 190/ 10/ 12 1019.2  
CAPE LOOKOUT 0400 83 220/ 7/ 8 1019.8  
BEAUFORT LAB 0348 84 87 210/ 7/ 8 1020.6  
30 SE NEW RVR IN 0408 85 85 240/ 10/ 12 1019.1  
30 SE NEW RVR IN 0400 85 N/A 2/ 9  
27 SE WRIGHTSVLE 0408 82 84 230/ 10/ 14 1019.9  
5 SE WRIGHTSVLE 0408 82 83 220/ 10/ 14 1019.4  
27 SE WRIGHTSVL 0408 82 84 230/ 10/ 14 1019.9  
FRYING PAN BUOY 0410 85 85 190/ 8/ 8 1019.7  
225 S CAPE HAT 0400 83 84 210/ 6/ 8 1021.2  
41 SE CHARLESTON 0400 85 86 190/ 10/ 12 1019.6  
 

 
 
 
CLICK HERE TO GO TO PREVIOUS BULLETINS.

The Nexlab NC Page Main Text Page